weather.gov     
National Weather Service

Regional Weather Roundup
NWS Homepage
This page is being discontinued on March 12, 2014.
The same data is available at this site. Please update your bookmarks.
Thank you, and we apologize for the inconvenience.
Please send an email to SR-SRH.Webmaster@noaa.gov with any concerns.


Current Version
Previous Version:    01  02  03  04  05  06  07  08  09  10  11  12  13  14  15  16  17  18  19  20  21  22  23  24  25  26  27  28  29  30  
   31  32  33  34  35  36  37  38  39  40  41  42  43  44  45  46  47  48  49  50  51  52  53  54  55  56  57  58  
[Printable]
412
ASUS45 KABQ 192110
RWRNM
WEATHER ROUNDUP FOR NEW MEXICO
NATIONAL WEATHER SERVICE ALBUQUERQUE NM
300 PM MDT FRI SEP 19 2014

NOTE: "FAIR" MEANS FEW OR NO CLOUDS BELOW 12,000 FEET AGL WITH NO
       SIGNIFICANT WEATHER OR OBSTRUCTIONS TO VISION.

      THIS PRODUCT IS RELEASED AS TWO VERSIONS.  ONE VERSION NEAR
      THE TOP OF THE HOUR CONTAINING PRELIMINARY DATA FROM ALBUQUERQUE
      AND OTHER STATIONS.  A FINAL VERSION WITH ADDITIONAL DATA IS
      ISSUED ABOUT 10 MINUTES AFTER THE HOUR.

NMZ501-503-504-510>518-192200-
NORTHWEST PLATEAU/NORTHCENTRAL MOUNTAINS

CITY           SKY/WX    TMP DP  RH WIND       PRES   REMARKS
FARMINGTON     SUNNY     85  45  24 W7        30.02F
LOS ALAMOS     MOSUNNY   78  38  24 SW5       30.14F
SANTA FE       SUNNY     81  47  30 S8        30.07F
TAOS           SUNNY     79  39  24 CALM      30.11F
ANGEL FIRE     FAIR      76  38  25 S8        30.20F

$$
NMZ402-403-502-505>509-192200-
WESTCENTRAL MOUNTAINS/SOUTHWEST MOUNTAINS

CITY           SKY/WX    TMP DP  RH WIND       PRES   REMARKS
GALLUP         MOSUNNY   84  38  19 NE13G20   30.10F
GRANTS         PTSUNNY   81  46  30 SE9       30.12S THUNDER
SILVER CITY    SUNNY     75  61  60 S9        30.07F

$$
NMZ407-409-411-412-192200-
SOUTHERN DESERTS

CITY           SKY/WX    TMP DP  RH WIND       PRES   REMARKS
LORDSBURG        N/A    N/A N/A N/A MISG        N/A
DEMING         PTSUNNY   79  61  53 S8        29.98F
LAS CRUCES     PTSUNNY   78  62  57 SE6       30.00F
HOLLOMAN AFB   PTSUNNY   77  65  66 S8        29.96F
ALAMOGORDO     PTSUNNY   77  66  69 SW8       29.98F
T OR C         MOSUNNY   80  58  46 N8        30.00F

$$
NMZ519>523-192200-
CENTRAL VALLEYS/CENTRAL HIGHLANDS

CITY           SKY/WX    TMP DP  RH WIND       PRES   REMARKS
ALBUQUERQUE    MOSUNNY   80  54  40 S8        30.03F
DOUBLE EAGLE   PTSUNNY   81  52  36 VRB7      30.07F
MORIARTY ARPT  CLOUDY    73  55  54 SE9       30.13S
CLINES CORNERS CLOUDY    71  56  58 S14       30.15F
BELEN          MOCLDY    80  55  41 SE8       30.03F
SOCORRO        CLOUDY    79  59  50 N6        30.02S

$$
NMZ524>526-539-540-192200-
SOUTHCENTRAL MOUNTAINS

CITY           SKY/WX    TMP DP  RH WIND       PRES   REMARKS
RUIDOSO        PTSUNNY   66  59  77 SE12      30.14F

$$
NMZ527>531-192200-
NORTHEAST HIGHLANDS/NORTHEAST PLAINS

CITY           SKY/WX    TMP DP  RH WIND       PRES   REMARKS
LAS VEGAS      MOSUNNY   71  55  56 S16G22    30.14F
RATON          SUNNY     79  46  31 S12       30.06F
CLAYTON        PTSUNNY   80  57  45 S16G25    30.01F

$$
NMZ532>537-192200-
EASTCENTRAL PLAINS

CITY           SKY/WX    TMP DP  RH WIND       PRES   REMARKS
TUCUMCARI      CLOUDY    79  58  48 SW7       29.98F
CANNON AFB     PTSUNNY   74  62  65 SE12      30.03F
CLOVIS AIRPORT   N/A     66  64  94 SW8       30.05F

$$
NMZ028-029-538-192200-
SOUTHEAST PLAINS

CITY           SKY/WX    TMP DP  RH WIND       PRES   REMARKS
ROSWELL        CLOUDY    73  67  81 NE3       29.96F
CARLSBAD       PTSUNNY   79  77  94 E13       29.90F
HOBBS          RAIN      66  66 100 E10       29.99F VSB 1


$$




U.S. Dept. of Commerce
NOAA National Weather Service
1325 East West Highway
Silver Spring, MD 20910
E-mail: w-nws.webmaster@noaa.gov
Page last modified: May 16, 2007
NATIONAL WEATHER SERVICE: for Safety, for Work, for Fun - FOR LIFE